TimeCDT,TemperatureF,Dew PointF,Humidity,Sea Level PressureIn,VisibilityMPH,Wind Direction,Wind SpeedMPH,Gust SpeedMPH,PrecipitationIn,Events,Conditions,WindDirDegrees,DateUTC
12:13 AM,12.2,6.8,79,30.09,10.0,NNW,3.5,-,N/A,,Clear,330,2013-03-21 05:13:00
12:33 AM,10.4,6.8,85,30.09,10.0,NW,4.6,-,N/A,,Clear,320,2013-03-21 05:33:00
1:13 AM,10.4,5.0,79,30.09,10.0,NW,4.6,-,N/A,,Clear,320,2013-03-21 06:13:00
1:33 AM,8.6,3.2,79,30.08,10.0,NW,3.5,-,N/A,,Clear,310,2013-03-21 06:33:00
1:53 AM,10.4,5.0,79,30.08,10.0,Calm,Calm,-,N/A,,Clear,0,2013-03-21 06:53:00
2:13 AM,8.6,3.2,79,30.08,10.0,Calm,Calm,-,N/A,,Clear,0,2013-03-21 07:13:00
2:33 AM,8.6,3.2,79,30.08,10.0,West,3.5,-,N/A,,Clear,280,2013-03-21 07:33:00
2:53 AM,6.8,3.2,85,30.08,10.0,Calm,Calm,-,N/A,,Clear,0,2013-03-21 07:53:00
3:13 AM,8.6,3.2,79,30.07,10.0,WNW,3.5,-,N/A,,Clear,300,2013-03-21 08:13:00
3:33 AM,6.8,3.2,85,30.07,10.0,Calm,Calm,-,N/A,,Clear,0,2013-03-21 08:33:00
3:53 AM,6.8,3.2,85,30.07,10.0,Calm,Calm,-,N/A,,Clear,0,2013-03-21 08:53:00
4:13 AM,6.8,3.2,85,30.06,10.0,Calm,Calm,-,N/A,,Clear,0,2013-03-21 09:13:00
4:33 AM,6.8,3.2,85,30.06,10.0,Calm,Calm,-,N/A,,Clear,0,2013-03-21 09:33:00
4:53 AM,6.8,3.2,85,30.06,10.0,Calm,Calm,-,N/A,,Clear,0,2013-03-21 09:53:00
5:13 AM,3.2,1.4,92,30.05,10.0,Calm,Calm,-,N/A,,Clear,0,2013-03-21 10:13:00
5:33 AM,5.0,3.2,92,30.06,10.0,Calm,Calm,-,N/A,,Clear,0,2013-03-21 10:33:00
5:53 AM,5.0,3.2,92,30.05,10.0,Calm,Calm,-,N/A,,Clear,0,2013-03-21 10:53:00
6:13 AM,3.2,1.4,92,30.06,10.0,Calm,Calm,-,N/A,,Clear,0,2013-03-21 11:13:00
6:33 AM,3.2,1.4,92,30.06,10.0,Calm,Calm,-,N/A,,Clear,0,2013-03-21 11:33:00
6:53 AM,3.2,1.4,92,30.06,10.0,Calm,Calm,-,N/A,,Clear,0,2013-03-21 11:53:00
7:13 AM,3.2,1.4,92,30.05,10.0,Calm,Calm,-,N/A,,Clear,0,2013-03-21 12:13:00
7:33 AM,3.2,1.4,92,30.06,10.0,Calm,Calm,-,N/A,,Clear,0,2013-03-21 12:33:00
7:53 AM,3.2,1.4,92,30.06,10.0,Calm,Calm,-,N/A,,Clear,0,2013-03-21 12:53:00
8:13 AM,5.0,1.4,85,30.06,7.0,Calm,Calm,-,N/A,,Clear,0,2013-03-21 13:13:00
8:33 AM,6.8,3.2,85,30.06,10.0,Calm,Calm,-,N/A,,Clear,0,2013-03-21 13:33:00
8:53 AM,10.4,5.0,79,30.07,10.0,Calm,Calm,-,N/A,,Clear,0,2013-03-21 13:53:00
9:13 AM,10.4,5.0,79,30.07,10.0,Calm,Calm,-,N/A,,Clear,0,2013-03-21 14:13:00
9:53 AM,12.2,6.8,79,30.07,10.0,Calm,Calm,-,N/A,,Clear,0,2013-03-21 14:53:00
10:13 AM,12.2,6.8,79,30.07,10.0,Calm,Calm,-,N/A,,Clear,0,2013-03-21 15:13:00
10:33 AM,12.2,6.8,79,30.07,10.0,Calm,Calm,-,N/A,,Clear,0,2013-03-21 15:33:00
10:53 AM,14.0,6.8,73,30.07,10.0,Calm,Calm,-,N/A,,Clear,0,2013-03-21 15:53:00
11:13 AM,15.8,6.8,68,30.06,10.0,Calm,Calm,-,N/A,,Clear,0,2013-03-21 16:13:00
11:33 AM,17.6,8.6,68,30.06,10.0,Calm,Calm,-,N/A,,Clear,0,2013-03-21 16:33:00
11:53 AM,19.4,10.4,68,30.05,10.0,Calm,Calm,-,N/A,,Clear,0,2013-03-21 16:53:00
12:13 PM,21.2,8.6,58,30.05,10.0,SSW,3.5,-,N/A,,Clear,210,2013-03-21 17:13:00
12:33 PM,21.2,8.6,58,30.05,10.0,SSW,3.5,-,N/A,,Clear,210,2013-03-21 17:33:00
12:53 PM,21.2,10.4,63,30.04,10.0,SSW,5.8,-,N/A,,Clear,210,2013-03-21 17:53:00
1:13 PM,21.2,10.4,63,30.04,10.0,West,3.5,-,N/A,,Clear,270,2013-03-21 18:13:00
1:33 PM,21.2,8.6,58,30.04,10.0,Calm,Calm,-,N/A,,Clear,0,2013-03-21 18:33:00
1:53 PM,23.0,12.2,63,30.03,10.0,NW,4.6,-,N/A,,Clear,320,2013-03-21 18:53:00
2:13 PM,23.0,10.4,59,30.03,10.0,NNW,4.6,-,N/A,,Clear,330,2013-03-21 19:13:00
2:33 PM,23.0,10.4,59,30.02,10.0,North,5.8,-,N/A,,Clear,350,2013-03-21 19:33:00
2:53 PM,23.0,10.4,59,30.02,10.0,North,4.6,-,N/A,,Clear,10,2013-03-21 19:53:00
3:13 PM,23.0,8.6,54,30.02,10.0,NW,3.5,-,N/A,,Clear,320,2013-03-21 20:13:00
3:33 PM,23.0,10.4,59,30.02,10.0,North,4.6,-,N/A,,Clear,360,2013-03-21 20:33:00
3:52 PM,23.0,10.4,59,30.02,10.0,North,6.9,-,N/A,,Clear,350,2013-03-21 20:52:00
4:13 PM,23.0,10.4,59,30.02,10.0,NNE,5.8,-,N/A,,Clear,20,2013-03-21 21:13:00
4:33 PM,23.0,10.4,59,30.01,10.0,North,6.9,-,N/A,,Clear,360,2013-03-21 21:33:00
4:53 PM,23.0,10.4,59,30.01,10.0,NE,4.6,-,N/A,,Clear,50,2013-03-21 21:53:00
5:13 PM,23.0,12.2,63,30.01,10.0,North,5.8,-,N/A,,Clear,360,2013-03-21 22:13:00
5:33 PM,23.0,12.2,63,30.01,10.0,NNE,3.5,-,N/A,,Clear,20,2013-03-21 22:33:00
5:53 PM,23.0,10.4,59,30.01,10.0,NE,4.6,-,N/A,,Clear,50,2013-03-21 22:53:00
6:13 PM,23.0,12.2,63,30.01,10.0,NNE,4.6,-,N/A,,Clear,30,2013-03-21 23:13:00
6:33 PM,23.0,12.2,63,30.01,10.0,North,4.6,-,N/A,,Clear,360,2013-03-21 23:33:00
6:53 PM,23.0,12.2,63,30.01,10.0,NNE,4.6,-,N/A,,Clear,30,2013-03-21 23:53:00
7:13 PM,21.2,12.2,68,30.01,10.0,NNE,3.5,-,N/A,,Clear,20,2013-03-22 00:13:00
7:33 PM,21.2,12.2,68,30.02,10.0,NNE,3.5,-,N/A,,Clear,30,2013-03-22 00:33:00
7:53 PM,21.2,12.2,68,30.02,10.0,Calm,Calm,-,N/A,,Clear,0,2013-03-22 00:53:00
8:13 PM,21.2,14.0,74,30.02,10.0,Calm,Calm,-,N/A,,Clear,0,2013-03-22 01:13:00
8:33 PM,19.4,12.2,74,30.02,10.0,Calm,Calm,-,N/A,,Clear,0,2013-03-22 01:33:00
8:53 PM,17.6,12.2,79,30.02,10.0,Calm,Calm,-,N/A,,Clear,0,2013-03-22 01:53:00
9:13 PM,17.6,12.2,79,30.02,10.0,Calm,Calm,-,N/A,,Clear,0,2013-03-22 02:13:00
9:33 PM,17.6,14.0,86,30.02,10.0,Calm,Calm,-,N/A,,Clear,0,2013-03-22 02:33:00
9:53 PM,15.8,12.2,86,30.03,10.0,Calm,Calm,-,N/A,,Clear,0,2013-03-22 02:53:00
10:13 PM,15.8,12.2,86,30.04,10.0,Calm,Calm,-,N/A,,Clear,0,2013-03-22 03:13:00
10:33 PM,15.8,12.2,86,30.04,10.0,Calm,Calm,-,N/A,,Clear,0,2013-03-22 03:33:00
10:53 PM,15.8,10.4,79,30.04,7.0,Calm,Calm,-,N/A,,Clear,0,2013-03-22 03:53:00
11:13 PM,15.8,12.2,86,30.04,10.0,Calm,Calm,-,N/A,,Clear,0,2013-03-22 04:13:00
11:33 PM,14.0,10.4,86,30.04,10.0,Calm,Calm,-,N/A,,Clear,0,2013-03-22 04:33:00
11:53 PM,12.2,10.4,92,30.05,10.0,Calm,Calm,-,N/A,,Clear,0,2013-03-22 04:53:00